SES-11 (ECHOSTAR 105) (42967 NORAD) Tracking and Keplerian Element Data

This shows tracking and keplerian element data for the satellite.

Feedback or suggestion? Click here.




ElementValue
Catalog42967
NameSES-11 (ECHOSTAR 105)
Epoch Orbit402
Epoch Day318.14374176
Epoch Year2018
RAAN108.8674
Inclination0.0317
Eccentricity0.0002525
Argument of Perigee134.9555
Mean Anonmoly116.179
Mean Motion1.00269529
Decay Rate-8.9E-07
L11 42967U 17063A 18318.14374176 -.00000089 00000-0 00000+0 0 9996
L22 42967 0.0317 108.8674 0002525 134.9555 116.1790 1.00269529 4026

Live tracking and technical data element details for SES-11 (ECHOSTAR 105) (NORAD 42967). SES-11 (ECHOSTAR 105) can be tracked NOW for your location showing map with azimuth and elevation plus other details from your city location.

Track the satellite on the map from your city or location and see movement details for azimuth, elevation, latitude, longitude, range, height, and movement on the map or in text.







IsCatalogInMostPopularTable: catalog: 42967, numindb: 160
Update: records affected: 1



GetName: 42967 SES-11 (ECHOSTAR 105)

Hit Count: updated at: Fri, 16 Nov 2018 03:11:00 GMT